Flag for Germany Weather past 2 weeks in Waren (Müritz), Mecklenburg-Western Pomerania, Germany

Now
52 °F

Passing clouds.


Feels Like: 47 °F
Forecast: 38 / 40 °F
Wind: 13 mph from Southwest

Location: Laage

Current Time: Dec 19, 2014 at 4:36:48 AM

Latest Report: Dec 19, 2014 at 3:20 AM


Visibility: 5 mi

Pressure: 29.59 "Hg

Humidity: 100%

Dew point: 52 °F

Location of Waren (Müritz)Location

Historic Weather in Waren (Müritz) — Graph

°F

Waren (Müritz) temperature yesterday

Maximum temperature yesterday: 52 °F (at 2:20 PM)
Minimum temperature yesterday: 37 °F (at 12:20 AM)
Average temperature yesterday: 48 °F

Past Weeks' High & Low Weather Summary

 TemperatureHumidityPressure
High52 °F (Dec 18, 2:20 PM)100% (Dec 5, 9:20 AM)30.30 "Hg (Dec 5, 9:20 AM)
Low28 °F (Dec 6, 9:20 PM)70% (Dec 10, 7:20 AM)29.18 "Hg (Dec 12, 3:20 PM)
Average38 °F91%29.85 "Hg
* Reported Dec 4 3:20 AM — Dec 19 3:20 AM, Waren (Müritz), Weather by CustomWeather, © 2014

Note: Actual official high and low records may vary slightly from our data, if they occured in-between our weather recording intervals... More about our weather records

Advertising

Waren (Müritz) weather history for previous 24 hours

 ConditionsComfort  
Time TempWeatherWind HumidityBarometerVisibility
3:20 AM
Dec 19
52 °FPassing clouds.13 mph100%29.59 "Hg5 mi
2:20 AM52 °FPassing clouds.16 mph94%29.59 "HgN/A
1:20 AM52 °FPassing clouds.16 mph100%29.56 "Hg4 mi
12:20 AM52 °FPartly cloudy.14 mph100%29.56 "Hg4 mi
11:20 PM
Dec 18
52 °FPassing clouds.15 mph100%29.56 "Hg4 mi
10:20 PM52 °FPassing clouds.17 mph100%29.56 "Hg3 mi
9:20 PM52 °FMostly cloudy.17 mph94%29.56 "HgN/A
8:48 PM52 °FLight rain. Passing clouds.15 mph94%29.56 "Hg5 mi
8:20 PM52 °FDrizzle. Fog.15 mph94%29.56 "Hg3 mi
7:20 PM50 °FPassing clouds.14 mph100%29.56 "Hg2 mi
6:20 PM50 °FPassing clouds.12 mph100%29.56 "Hg5 mi
5:20 PM52 °FOvercast.13 mph88%29.59 "HgN/A
4:20 PM52 °FPassing clouds.12 mph88%29.59 "HgN/A
3:20 PM50 °FDrizzle. Fog.12 mph94%29.62 "Hg3 mi
2:20 PM52 °FDrizzle. Partly sunny.12 mph88%29.62 "Hg4 mi
1:20 PM50 °FPartly sunny.10 mph94%29.65 "Hg5 mi
12:20 PM48 °FDrizzle. Fog.12 mph100%29.68 "Hg2 mi
11:20 AM48 °FDrizzle. Fog.9 mph94%29.68 "Hg3 mi
10:20 AM46 °FDrizzle. Fog.9 mph100%29.71 "Hg1 mi
9:20 AM46 °FFog.9 mph93%29.71 "Hg3 mi
8:20 AM45 °FPassing clouds.8 mph93%29.71 "Hg5 mi
7:20 AM45 °FPassing clouds.8 mph93%29.71 "HgN/A
6:20 AM45 °FPartly cloudy.10 mph93%29.68 "HgN/A
5:20 AM45 °FPassing clouds.9 mph93%29.68 "HgN/A
4:20 AM45 °FPassing clouds.8 mph93%29.68 "HgN/A
Weather by CustomWeather, © 2014

See weather overviewHow to use our weather pages